SA3PJN-WX Weather Reports


time (UTC)temp
C
wind
direction
speed
KPH
gust
KPH
rain 1hr
cm
rain 24hr
cm
rain mn
cm
humidity
%
barometer
mb
20260831132409 12 209 8.0 25.7 0.00 0.00 0.00 10 958.8
20260831131909 12 135 6.4 17.7 0.00 0.00 0.00 10 958.8
20260831131409 12 169 6.4 16.1 0.00 0.00 0.00 10 958.8
20260831130909 12 289 4.8 17.7 0.00 0.00 0.00 10 958.8
20260831130409 12 107 6.4 20.9 0.00 0.00 0.00 10 958.7
20260831125909 12 121 8.0 25.7 0.00 0.00 0.00 10 958.6
20260831125409 12 99 8.0 25.7 0.00 0.00 0.00 10 958.6
20260831124909 12 196 6.4 17.7 0.00 0.00 0.00 10 958.6
20260831124409 12 164 6.4 19.3 0.00 0.00 0.00 10 958.6
20260831123909 12 155 6.4 19.3 0.00 0.00 0.00 10 958.5
20260831123409 12 77 6.4 22.5 0.00 0.00 0.00 10 958.4
20260831122909 12 161 6.4 22.5 0.00 0.00 0.00 10 958.6
20260831122409 12 206 6.4 24.1 0.00 0.00 0.00 10 958.5
20260831121909 12 102 6.4 24.1 0.00 0.00 0.00 10 958.6
20260831121409 12 210 6.4 17.7 0.00 0.00 0.00 10 958.6
20260831120909 12 218 6.4 14.5 0.00 0.00 0.00 10 958.5
20260831120409 12 303 6.4 16.1 0.00 0.00 0.00 10 958.4
20260831115909 12 250 8.0 17.7 0.00 0.00 0.00 10 958.5
20260831115339 12 231 8.0 20.9 0.00 0.00 0.00 10 958.4
20260831114838 12 232 8.0 20.9 0.00 0.00 0.00 10 958.2
20260831114338 12 201 8.0 20.9 0.00 0.00 0.00 10 958.1
20260831113838 12 230 6.4 19.3 0.00 0.00 0.00 10 958.2
20260831113338 12 208 8.0 19.3 0.00 0.00 0.00 10 958.1
20260831112838 12 266 8.0 22.5 0.00 0.00 0.00 10 958.1
20260831112338 12 242 8.0 22.5 0.00 0.00 0.00 10 958.2
20260831111838 12 223 6.4 22.5 0.00 0.00 0.00 10 958.1
20260831111338 12 220 6.4 20.9 0.00 0.00 0.00 10 958.0
20260831110838 12 232 6.4 22.5 0.00 0.00 0.00 10 958.1
20260831110338 12 144 6.4 22.5 0.00 0.00 0.00 10 958.1
20260831105838 12 249 6.4 19.3 0.00 0.00 0.00 10 958.0
20260831105338 12 224 6.4 19.3 0.00 0.00 0.00 10 958.0
20260831104838 11 236 4.8 14.5 0.00 0.00 0.00 10 958.0
20260831104338 11 79 4.8 14.5 0.00 0.00 0.00 10 958.0
20260831103838 11 207 6.4 17.7 0.00 0.00 0.00 10 957.9
20260831103337 11 278 6.4 17.7 0.00 0.00 0.00 10 958.0
20260831102837 11 260 6.4 16.1 0.00 0.00 0.00 10 957.8
20260831102337 11 258 8.0 20.9 0.00 0.00 0.00 10 957.7
20260831101837 11 257 9.7 22.5 0.00 0.00 0.00 10 957.7
20260831101337 11 227 8.0 22.5 0.00 0.00 0.00 10 957.8
20260831100837 11 222 4.8 16.1 0.00 0.00 0.00 10 958.1
20260831100337 11 135 4.8 14.5 0.00 0.00 0.00 10 958.1
20260831095837 11 46 4.8 12.9 0.00 0.00 0.00 10 958.0
20260831095337 11 228 4.8 12.9 0.00 0.00 0.00 10 958.0
20260831094837 11 196 3.2 11.3 0.00 0.00 0.00 10 957.9
20260831094337 11 150 3.2 14.5 0.00 0.00 0.00 10 957.9
20260831093837 11 167 4.8 14.5 0.00 0.00 0.00 10 957.9
20260831093337 11 26 4.8 11.3 0.00 0.00 0.00 10 957.8
20260831092837 11 317 4.8 16.1 0.00 0.00 0.00 10 957.9
20260831092337 11 254 4.8 16.1 0.00 0.00 0.00 10 957.7
20260831091837 11 211 6.4 14.5 0.00 0.00 0.00 10 957.7
20260831091337 11 244 6.4 14.5 0.00 0.00 0.00 10 957.7
20260831090837 11 295 6.4 12.9 0.00 0.00 0.00 10 957.7
20260831090337 11 289 6.4 12.9 0.00 0.00 0.00 10 957.6
20260831085836 11 252 4.8 12.9 0.00 0.00 0.00 10 957.4
20260831085336 12 311 4.8 11.3 0.00 0.00 0.00 10 957.5
20260831084836 12 245 4.8 14.5 0.00 0.00 0.00 10 957.5
20260831084336 11 287 4.8 14.5 0.00 0.00 0.00 10 957.4
20260831083836 11 282 4.8 9.7 0.00 0.00 0.00 10 957.5
20260831083336 11 249 3.2 9.7 0.00 0.00 0.00 10 957.4
20260831082836 11 303 4.8 14.5 0.00 0.00 0.00 10 957.4
20260831082336 11 266 3.2 14.5 0.00 0.00 0.00 10 957.4
20260831081836 11 232 3.2 12.9 0.00 0.00 0.00 10 957.5
20260831081336 11 267 4.8 12.9 0.00 0.00 0.00 10 957.7
20260831080836 11 242 4.8 12.9 0.00 0.00 0.00 10 957.5
20260831080336 11 226 3.2 16.1 0.00 0.00 0.00 10 957.6
20260831075836 11 234 3.2 16.1 0.00 0.00 0.00 10 957.8
20260831075336 11 229 3.2 9.7 0.00 0.00 0.00 10 957.7
20260831074835 11 258 3.2 9.7 0.00 0.00 0.00 10 957.6
20260831074335 11 246 4.8 9.7 0.00 0.00 0.00 10 957.7
20260831073835 11 236 4.8 9.7 0.00 0.00 0.00 10 957.6
20260831073335 11 213 4.8 14.5 0.00 0.00 0.00 10 957.7
20260831072835 11 270 6.4 16.1 0.00 0.00 0.00 10 957.7
20260831072335 11 270 8.0 16.1 0.00 0.00 0.00 10 957.6
20260831071835 11 330 8.0 19.3 0.00 0.00 0.00 10 957.5
20260831071335 11 262 8.0 19.3 0.00 0.00 0.00 10 957.5
20260831070835 11 272 8.0 19.3 0.00 0.00 0.00 10 957.6
20260831070335 11 324 6.4 16.1 0.00 0.00 0.00 10 957.6
20260831065835 11 241 6.4 16.1 0.00 0.00 0.00 10 957.6
20260831065335 11 294 6.4 17.7 0.00 0.00 0.00 10 957.7
20260831064835 11 247 8.0 17.7 0.00 0.00 0.00 10 957.6
20260831064335 11 269 8.0 17.7 0.00 0.00 0.00 10 957.6
20260831063835 11 274 6.4 16.1 0.00 0.00 0.00 10 957.6
20260831063335 11 282 6.4 16.1 0.00 0.00 0.00 10 957.6
20260831062834 11 284 6.4 16.1 0.00 0.00 0.00 10 957.6
20260831062334 11 322 6.4 16.1 0.00 0.00 0.00 10 957.6
20260831061834 11 249 6.4 16.1 0.00 0.00 0.00 10 957.6
20260831061334 11 335 4.8 12.9 0.00 0.00 0.00 10 957.5
20260831060834 11 274 4.8 12.9 0.00 0.00 0.00 10 957.7
20260831060334 11 252 4.8 12.9 0.00 0.00 0.00 10 957.6
20260831055834 11 249 4.8 14.5 0.00 0.00 0.00 10 957.5
20260831055334 11 260 4.8 14.5 0.00 0.00 0.00 10 957.5
20260831054834 11 218 3.2 9.7 0.00 0.00 0.00 10 957.7
20260831054304 11 185 3.2 11.3 0.00 0.00 0.00 10 957.6
20260831053804 11 276 3.2 11.3 0.00 0.00 0.00 10 957.7
20260831053304 11 329 4.8 11.3 0.00 0.00 0.00 10 957.7
20260831052804 11 261 3.2 16.1 0.00 0.00 0.00 10 957.7
20260831052306 11 246 3.2 16.1 0.00 0.00 0.00 10 957.7
20260831051804 11 260 3.2 14.5 0.00 0.00 0.00 10 957.6
20260831051304 11 257 3.2 9.7 0.00 0.00 0.00 10 957.6
20260831050804 11 282 3.2 8.0 0.00 0.00 0.00 10 957.6
20260831050303 11 237 1.6 6.4 0.00 0.00 0.00 10 957.7
20260831045803 11 89 1.6 8.0 0.00 0.00 0.00 10 957.8
20260831045306 11 278 1.6 8.0 0.00 0.00 0.00 10 957.7
20260831044803 11 253 1.6 8.0 0.00 0.00 0.00 10 957.8
20260831044303 11 178 1.6 8.0 0.00 0.00 0.00 10 957.8
20260831043803 11 246 1.6 8.0 0.00 0.00 0.00 10 957.7
20260831043303 11 174 3.2 9.7 0.00 0.00 0.00 10 957.7
20260831042803 11 240 3.2 14.5 0.00 0.00 0.00 10 957.8
20260831042306 11 128 4.8 14.5 0.00 0.00 0.00 10 957.7
20260831041803 11 238 6.4 14.5 0.00 0.00 0.00 10 957.7
20260831041303 11 288 6.4 12.9 0.00 0.00 0.00 10 957.7
20260831040803 11 285 6.4 11.3 0.00 0.00 0.00 10 957.5
20260831040303 11 292 4.8 9.7 0.00 0.00 0.00 10 957.6
20260831035803 11 264 3.2 8.0 0.00 0.00 0.00 10 957.6
20260831035306 11 292 3.2 8.0 0.00 0.00 0.00 10 957.6
20260831034802 11 241 1.6 8.0 0.00 0.00 0.00 10 957.8
20260831034302 11 290 1.6 6.4 0.00 0.00 0.00 10 957.6
20260831033802 11 229 1.6 6.4 0.00 0.00 0.00 10 957.7
20260831033302 11 231 3.2 9.7 0.00 0.00 0.00 10 957.8
20260831032802 11 199 3.2 9.7 0.00 0.00 0.00 10 957.9
20260831032306 11 262 1.6 9.7 0.00 0.00 0.00 10 957.9
20260831031802 11 114 3.2 9.7 0.00 0.00 0.00 10 957.9
20260831031302 11 328 3.2 9.7 0.00 0.00 0.00 10 957.9
20260831030802 11 254 3.2 12.9 0.00 0.00 0.00 10 957.9
20260831030302 11 267 3.2 12.9 0.00 0.00 0.00 10 957.8
20260831025802 11 235 3.2 12.9 0.00 0.00 0.00 10 957.7
20260831025306 11 300 3.2 9.7 0.00 0.00 0.00 10 957.8
20260831024802 11 274 3.2 9.7 0.00 0.00 0.00 10 957.7
20260831024302 11 315 4.8 11.3 0.00 0.00 0.00 10 957.7
20260831023801 12 277 4.8 11.3 0.00 0.00 0.00 99 957.7
20260831023301 12 239 4.8 11.3 0.00 0.00 0.00 98 957.8
20260831022801 12 252 3.2 12.9 0.00 0.00 0.00 98 957.8
20260831022301 12 284 4.8 16.1 0.00 0.00 0.00 98 957.8
20260831021801 12 256 4.8 16.1 0.00 0.00 0.00 97 957.8
20260831021301 12 240 4.8 11.3 0.00 0.00 0.00 97 957.9
20260831020801 12 249 4.8 11.3 0.00 0.00 0.00 97 957.8
20260831020301 12 201 3.2 9.7 0.00 0.00 0.00 97 957.8
20260831015801 12 205 3.2 9.7 0.00 0.00 0.00 97 957.9
20260831015301 12 226 3.2 11.3 0.00 0.00 0.00 97 958.0
20260831014801 12 246 4.8 11.3 0.00 0.00 0.00 97 958.0
20260831014301 12 197 4.8 9.7 0.00 0.00 0.00 97 958.1
20260831013801 12 220 3.2 9.7 0.00 0.00 0.00 97 958.1
20260831013301 12 215 3.2 9.7 0.00 0.00 0.00 97 958.1
20260831012801 12 154 3.2 9.7 0.00 0.00 0.00 97 958.1
20260831012300 12 228 3.2 11.3 0.00 0.00 0.00 97 958.0
20260831011800 12 226 3.2 11.3 0.00 0.00 0.00 97 957.9
20260831011300 12 19 3.2 9.7 0.00 0.00 0.00 97 958.0
20260831010800 12 188 3.2 12.9 0.00 0.00 0.00 97 957.9
20260831010300 12 170 3.2 12.9 0.00 0.00 0.00 97 957.9
20260831005800 12 111 3.2 9.7 0.00 0.00 0.00 97 957.9
20260831005300 12 233 3.2 8.0 0.00 0.00 0.00 97 957.9
20260831004800 12 134 3.2 8.0 0.00 0.00 0.00 97 957.9
20260831004300 12 235 3.2 8.0 0.00 0.00 0.00 97 958.1
20260831003800 12 240 3.2 6.4 0.00 0.00 0.00 97 958.0
20260831003300 12 131 3.2 8.0 0.00 0.00 0.00 98 957.9
20260831002800 12 235 3.2 11.3 0.00 0.00 0.00 98 957.9
20260831002300 12 254 3.2 11.3 0.00 0.00 0.00 97 957.9
20260831001800 12 237 3.2 11.3 0.00 0.00 0.00 97 957.9
20260831001259 12 114 3.2 11.3 0.00 0.00 0.00 97 958.0
20260831000759 12 280 3.2 11.3 0.00 0.00 0.00 97 957.9
20260831000259 13 237 3.2 11.3 0.00 0.00 0.00 97 957.9
20260830235759 13 127 1.6 8.0 0.00 0.00 0.00 97 957.9
20260830235259 13 165 1.6 6.4 0.00 0.00 0.00 97 958.0
20260830234759 13 232 1.6 9.7 0.00 0.00 0.00 98 958.0
20260830234259 13 109 1.6 9.7 0.00 0.00 0.00 98 958.0
20260830233759 13 129 1.6 8.0 0.00 0.00 0.00 98 958.0
20260830233259 13 70 3.2 9.7 0.00 0.00 0.00 98 958.0
20260830232759 13 104 3.2 9.7 0.00 0.00 0.00 98 958.0
20260830232259 13 236 1.6 8.0 0.00 0.00 0.00 98 958.0
20260830231759 13 248 1.6 6.4 0.00 0.00 0.00 98 958.0
20260830231259 13 91 1.6 6.4 0.00 0.00 0.00 98 958.0
20260830230758 12 112 1.6 6.4 0.00 0.00 0.00 99 958.0
20260830230258 12 154 3.2 9.7 0.00 0.00 0.00 99 958.1
20260830225758 12 149 3.2 9.7 0.00 0.00 0.00 99 957.9
20260830225258 12 233 3.2 11.3 0.00 0.00 0.00 98 957.9
20260830224758 12 242 3.2 11.3 0.00 0.00 0.00 98 957.9
20260830224258 12 152 3.2 11.3 0.00 0.00 0.00 98 958.0
20260830223758 12 125 3.2 14.5 0.00 0.00 0.00 98 957.9
20260830223258 12 128 3.2 14.5 0.00 0.00 0.00 98 957.9
20260830222758 12 192 3.2 9.7 0.00 0.00 0.00 98 957.9
20260830222258 12 229 3.2 9.7 0.00 0.00 0.00 98 957.9
20260830221758 12 246 4.8 11.3 0.00 0.00 0.00 99 957.9
20260830221258 12 225 4.8 11.3 0.00 0.00 0.00 99 957.9
20260830220758 12 204 4.8 11.3 0.00 0.00 0.00 99 957.9
20260830220258 12 224 4.8 11.3 0.00 0.00 0.00 99 957.8
20260830215758 12 210 3.2 9.7 0.00 0.00 0.00 99 957.9
20260830215258 12 144 4.8 9.7 0.00 0.00 0.00 99 957.9
20260830214758 12 203 4.8 9.7 0.00 0.00 0.00 99 957.8
20260830214257 12 199 4.8 12.9 0.00 0.00 0.00 99 957.8
20260830213757 12 234 6.4 14.5 0.00 0.00 0.00 98 957.9
20260830213257 13 226 4.8 17.7 0.00 0.00 0.00 98 957.9
20260830212757 13 222 4.8 17.7 0.00 0.00 0.00 98 957.8
20260830212257 13 213 3.2 12.9 0.00 0.00 0.00 98 958.0
20260830211757 13 119 3.2 9.7 0.00 0.00 0.00 98 958.0
20260830211257 13 81 3.2 12.9 0.00 0.00 0.00 97 958.0
20260830210757 13 182 3.2 12.9 0.00 0.00 0.00 97 958.0
20260830210257 13 229 1.6 12.9 0.00 0.00 0.00 96 958.0
20260830205757 13 122 1.6 8.0 0.00 0.00 0.00 96 958.0
20260830205257 14 88 0.0 4.8 0.00 0.00 0.00 97 958.1
20260830204757 13 30 0.0 6.4 0.00 0.00 0.00 97 957.9
20260830204257 13 72 0.0 6.4 0.00 0.00 0.00 97 958.0
20260830203757 13 119 0.0 4.8 0.00 0.00 0.00 97 958.0
20260830203256 13 19 1.6 6.4 0.00 0.00 0.00 97 957.8
20260830202756 13 211 1.6 8.0 0.00 0.00 0.00 97 957.8
20260830202256 13 228 3.2 9.7 0.00 0.00 0.00 97 957.8
20260830201756 13 231 3.2 9.7 0.00 0.00 0.00 97 957.8
20260830201256 13 162 3.2 9.7 0.00 0.00 0.00 97 957.8
20260830200756 13 290 4.8 12.9 0.00 0.00 0.00 97 957.7
20260830200256 13 310 4.8 12.9 0.00 0.00 0.00 97 957.8
20260830195756 13 242 4.8 12.9 0.00 0.00 0.00 96 957.6
20260830195256 13 278 4.8 12.9 0.00 0.00 0.00 96 957.6
20260830194756 13 247 4.8 12.9 0.00 0.00 0.00 96 957.6
20260830194256 13 205 4.8 12.9 0.00 0.00 0.00 96 957.6
20260830193756 13 242 4.8 12.9 0.00 0.00 0.00 96 957.6
20260830193256 13 215 4.8 12.9 0.00 0.00 0.00 96 957.6
20260830192755 13 242 4.8 14.5 0.00 0.00 0.00 97 957.6
20260830192255 13 240 4.8 16.1 0.00 0.00 0.00 97 957.6
20260830191755 13 252 4.8 16.1 0.00 0.00 0.00 98 957.5
20260830191255 13 177 4.8 12.9 0.00 0.00 0.00 98 957.6
20260830190755 13 232 4.8 16.1 0.00 0.00 0.00 98 957.4
20260830190255 13 93 4.8 16.1 0.00 0.00 0.00 98 957.4
20260830185755 13 228 3.2 12.9 0.00 0.00 0.00 98 957.5
20260830185255 13 92 4.8 12.9 0.00 0.00 0.00 98 957.4
20260830184755 13 229 6.4 16.1 0.00 0.00 0.00 98 957.1
20260830184255 13 237 6.4 16.1 0.00 0.00 0.00 98 957.3
20260830183755 13 223 4.8 16.1 0.00 0.00 0.00 98 957.3
20260830183255 13 226 4.8 16.1 0.00 0.00 0.00 98 957.6
20260830182755 13 219 4.8 14.5 0.00 0.00 0.00 98 957.5
20260830182255 14 145 4.8 14.5 0.00 0.00 0.00 98 957.3
20260830181755 14 252 4.8 12.9 0.00 0.00 0.00 97 957.3
20260830181254 14 220 4.8 12.9 0.00 0.00 0.00 97 957.3
20260830180754 14 164 4.8 14.5 0.00 0.00 0.00 97 957.2
20260830180254 14 229 6.4 14.5 0.00 0.00 0.00 97 957.3
20260830175754 14 255 6.4 14.5 0.00 0.00 0.00 97 957.1
20260830175254 14 219 4.8 14.5 0.00 0.00 0.00 97 957.0
20260830174754 14 235 4.8 14.5 0.00 0.00 0.00 97 957.0
20260830174254 14 175 4.8 16.1 0.00 0.00 0.00 97 957.0
20260830173754 14 53 6.4 16.1 0.00 0.00 0.00 96 957.0
20260830173254 15 65 4.8 14.5 0.00 0.00 0.00 96 957.0
20260830172754 15 235 4.8 16.1 0.00 0.00 0.00 96 957.0
20260830172254 15 243 4.8 16.1 0.00 0.00 0.00 96 957.0
20260830171754 15 214 6.4 16.1 0.00 0.00 0.00 95 957.0
20260830171254 15 247 6.4 16.1 0.00 0.00 0.00 95 956.9
20260830170754 15 210 6.4 19.3 0.00 0.00 0.00 95 956.9
20260830170254 15 199 6.4 19.3 0.00 0.00 0.00 94 956.6
20260830165754 15 230 6.4 17.7 0.00 0.00 0.00 94 956.5
20260830165254 15 226 6.4 17.7 0.00 0.00 0.00 95 956.5
20260830164753 15 228 6.4 17.7 0.00 0.00 0.00 95 956.5
20260830164253 15 257 6.4 17.7 0.00 0.00 0.00 94 956.5
20260830163753 15 226 8.0 19.3 0.00 0.00 0.00 95 956.5
20260830163253 15 240 8.0 20.9 0.00 0.00 0.00 94 956.6
20260830162753 15 242 8.0 20.9 0.00 0.00 0.00 94 956.5
20260830162253 15 211 9.7 20.9 0.00 0.00 0.00 94 956.5
20260830161753 15 205 9.7 24.1 0.00 0.00 0.00 93 956.4
20260830161253 15 223 9.7 24.1 0.00 0.00 0.00 92 956.5
20260830160753 16 151 9.7 24.1 0.00 0.00 0.00 92 956.4
20260830160253 16 215 9.7 25.7 0.00 0.00 0.00 91 956.4
20260830155753 16 230 9.7 25.7 0.00 0.00 0.00 90 956.5
20260830155253 16 245 9.7 24.1 0.00 0.00 0.00 90 956.5
20260830154753 16 231 9.7 22.5 0.00 0.00 0.00 91 956.4
20260830154253 16 246 8.0 22.5 0.00 0.00 0.00 92 956.4
20260830153753 16 230 8.0 19.3 0.00 0.00 0.00 91 956.3
20260830153253 16 237 8.0 20.9 0.00 0.00 0.00 88 956.3
20260830152752 17 245 8.0 22.5 0.00 0.00 0.00 84 956.2
20260830152252 17 197 6.4 22.5 0.00 0.00 0.00 86 956.3
20260830151752 18 182 4.8 17.7 0.00 0.00 0.00 82 956.2
20260830151252 18 217 4.8 16.1 0.00 0.00 0.00 78 956.3
20260830150752 18 176 4.8 20.9 0.00 0.00 0.00 78 956.2
20260830150252 18 219 4.8 20.9 0.00 0.00 0.00 75 956.1
20260830145752 20 161 3.2 12.9 0.00 0.00 0.00 74 956.3
20260830145252 21 59 3.2 12.9 0.00 0.00 0.00 72 956.2
20260830144752 21 22 3.2 12.9 0.00 0.00 0.00 71 956.3
20260830144252 21 262 3.2 11.3 0.00 0.00 0.00 68 956.1
20260830143752 21 64 3.2 14.5 0.00 0.00 0.00 67 956.1
20260830143252 21 358 3.2 14.5 0.00 0.00 0.00 72 956.2
20260830142752 20 86 3.2 14.5 0.00 0.00 0.00 70 956.3
20260830142252 20 148 3.2 8.0 0.00 0.00 0.00 72 956.0
20260830141751 20 91 3.2 12.9 0.00 0.00 0.00 73 956.2
20260830141251 19 133 3.2 12.9 0.00 0.00 0.00 73 956.1
20260830140751 20 158 1.6 9.7 0.00 0.00 0.00 72 956.0
20260830140251 20 179 1.6 8.0 0.00 0.00 0.00 74 956.1
20260830135751 20 89 1.6 11.3 0.00 0.00 0.00 73 956.1
20260830135251 21 6 1.6 11.3 0.00 0.00 0.00 73 956.0
20260830134751 21 163 1.6 8.0 0.00 0.00 0.00 73 956.0
20260830134251 21 173 1.6 6.4 0.00 0.00 0.00 75 956.0
20260830133751 21 242 1.6 8.0 0.00 0.00 0.00 74 955.9
20260830133251 21 277 1.6 8.0 0.00 0.00 0.00 73 955.8
20260830132751 21 263 1.6 8.0 0.00 0.00 0.00 70 956.0